Showing default

OPS 9328 (IDSCS 15), 2655

Orbit data source: Space-Track

OPS 9328 (IDSCS 15), 2655 is a payload satellite owned by USAF SSD (US) in GEO that was launched on Wed, 18 Jan 1967 UTC via a TITAN IIIC launch vehicle from the Air Force Eastern Test Range (AFETR). Payload-class satellites include a variety of spacecraft equipped with specific instruments for various scientific and technological missions. These include communications satellites like Starlink; space stations such as the ISS; scientific satellites like the Hubble; Earth observation satellites from companies like Planet Labs, Umbra, and HawkEye 360; GPS; miniature CubeSats for education and research; and military/defense satellites.

Loading next visibility...
Identifier
2655, 1967-003H
Orbit
GEO
Last TLE update
18 hours ago
Origin
Manufacturer
Philco-Ford WDL
Mission
Non-operational Defense Communications
Bus & Motor
IDCSP, Unknown motor
Mass
45 kg wet, 45 kg dry
Launch date (UTC)
1967-01-18 (58 years ago)
Launch vehicle
TITAN IIIC
Launch site
Air Force Eastern Test Range (AFETR)
Object type
Payload
Rocket body
Debris
Shape & HBR
Ico Poly, 0.9 m
Radar Cross Section
0.926 m², Medium (>0.1 m² and < 1m²)

Expand to show TLE details & history

TLE from 18 hours ago
0 OPS 9328 (IDSCS 15)
1 02655U 67003H   25128.48750441 -.00000047  00000-0  00000-0 0  9997
2 02655   7.2661  51.4867 0074235  27.9051 131.2616  1.07229244134861
Epoch: 2025-05-08T11:42Z
Definitive object data (Epoch: 2025-05-08T11:42:00.381Z)
Latitude
2.48792°
Longitude
169.38389°
Altitude
34,141.523 km
Speed
3.129 km/s
True Right ascension
14h 05m 46s
True Declination
2° 29' 07"
Sunlit
Object was in daylight at TLE epoch
Visualization TLE readout
Latitude
7.24347°
Longitude
95.048°
Altitude
33,780.746 km
Speed
3.157 km/s
Apparent Right ascension
08h 41m 17s
Apparent Declination
1° 28' 50"
Sunlit
Object is in daylight
Visualization observer readout
Local Sidereal Time
13:36:38
Azimuth
260.613° W
Elevation
13.297°
Doppler factor
1
Orbital elements
Apogee altitude
34,242.822 km
Perigee altitude
33,644.167 km
Semi-major axis
40,321.631 km
Eccentricity
0.0074235
Inclination
7.2661°
RAAN
51.4867°
Arg. of periapsis
27.9051°
True anomaly
131.89715°
Mean anomaly
131.2616°
Eccentric anomaly
131.57976°
Mean motion
0.26806 °/min
BSTAR
Unknown
Orbital period
1342.97 mins
Loading historical data...
2655 neighbors
Loading maneuver chart data...
Loading SW <> Apogee altitude chart data...
Loading historical data...
Loading historical data...
Loading historical data...
Loading historical data...
Loading historical data...
Loading historical data...
Loading historical data...

OPS 9328 (IDSCS 15) Visibility forecast

Observer location: undefined°, undefined°

Span
Click to sort rows by Start time (UTC) header in descending order
Start Az.
Max El. time (UTC)
Max El. Az.
Max El.
End time (UTC)
End Az.
1440 mins2025-05-09 05:27:58.379Z260.597° W2025-05-10 05:27:58.379Z239.71° WSW28.199°2025-05-10 05:27:58.379Z239.71° WSW
|